カタログに戻る

STARLINK-31982

運用中通信VLEO
NORAD 60022·PAYLOAD·🇺🇸 United States

打ち上げ Jun 8, 2024 から Cape Canaveral Space Force Station

Loading…

次のパス (今後24時間)

TLE

最新Source: CelesTrak SupGP

元期: Sep 14, 2026, 20:48 UTC

1 60022C 24111G   26257.86715278  .00040274  00000+0  11904-2 0  2575
2 60022  53.1570 272.3291 0001203  95.4273 210.9761 15.34357189    18

AllMySatでSTARLINK-31982をリアルタイム追跡

Download on the App Store